FW9914 Weather Reports


time (UTC)temp
C
wind
direction
speed
KPH
gust
KPH
rain 1hr
cm
rain 24hr
cm
rain mn
cm
humidity
%
barometer
mb
20260503030145 16 164 0.0 0.0 0.00 0.00 0.00 34 1011.4
20260503020134 18 164 0.0 0.0 0.00 0.00 0.00 36 1011.4
20260503010129 21 164 0.0 0.0 0.00 0.00 0.00 24 1012.1
20260503000211 22 164 0.0 0.0 0.00 0.00 0.00 25 1013.2
20260502230118 22 165 0.0 0.0 0.00 0.00 0.00 26 1014.1
20260502220109 22 165 0.0 0.0 0.00 0.00 0.00 27 1015.1
20260502210149 22 165 0.0 0.0 0.00 0.00 0.00 28 1016.3
20260502200158 21 164 0.0 0.0 0.00 0.00 0.00 31 1017.0
20260502190113 20 164 0.0 0.0 0.00 0.00 0.00 32 1017.9
20260502180121 18 164 0.0 0.0 0.00 0.00 0.00 36 1018.5
20260502170123 16 164 0.0 0.0 0.00 0.00 0.00 39 1019.2
20260502160146 12 158 0.0 0.0 0.00 0.00 0.00 54 1019.7
20260502150149 8 158 0.0 0.0 0.00 0.00 0.00 77 1019.9
20260502130115 -1 158 0.0 0.0 0.00 0.00 0.00 93 1020.1
20260502120127 -1 158 0.0 0.0 0.00 0.00 0.00 90 1020.1
20260502110202 -1 158 0.0 0.0 0.00 0.00 0.00 90 1019.9
20260502100209 0 158 0.0 0.0 0.00 0.00 0.00 88 1019.7
20260502090149 1 158 0.0 0.0 0.00 0.00 0.00 86 1019.6
20260502070139 2 158 0.0 0.0 0.00 0.00 0.00 84 1019.1
20260502060159 5 158 0.0 0.0 0.00 0.00 0.00 78 1018.9
20260502050137 7 158 0.0 0.0 0.00 0.00 0.00 67 1018.1
20260502040147 9 158 0.0 0.0 0.00 0.00 0.00 64 1018.0